Weather History for Custer, SD

Change the Weather History Date:

Sunday, April 13, 2014

  Actual Average Record
Temperature  
Mean Temperature 22 °F 38 °F  
Max Temperature 30 °F 50 °F 76 °F (1976)
Min Temperature 14 °F 27 °F 2 °F (1959)
Degree Days  
Heating Degree Days 43 27  
Month to date heating degree days 373 370  
Since 1 July heating degree days 7283 7245  
Cooling Degree Days 0 0  
Month to date cooling degree days 0 0  
Year to date cooling degree days 0 0  
Moisture  
Dew Point 17 °F    
Average Humidity 71    
Maximum Humidity 92    
Minimum Humidity 50    
Precipitation  
Precipitation 0.01 in 0.08 in 0.65 in (1986)
Month to date precipitation 0.71 0.75  
Year to date precipitation 3.24 2.62  
Sea Level Pressure  
Sea Level Pressure 30.05 in    
Wind  
Wind Speed 9 mph (North)    
Max Wind Speed 17 mph    
Max Gust Speed 29 mph    
Visibility 8 miles    
Events Snow    
T = Trace of Precipitation, MM = Missing Value Source: NWS Daily Summary

Daily Weather History Graph

Daily Weather History Graph

Search for Another Location

Airport:

Trip Planner

Search our weather history database for the weather conditions in past years. The results will help you decide how hot, cold, wet, or windy it might be!

Date:

Astronomy

Apr. 13, 2014 Rise Set
Actual Time 6:14 AM MDT 7:35 PM MDT
Civil Twilight 5:45 AM MDT 8:05 PM MDT
Nautical Twilight 5:09 AM MDT 8:41 PM MDT
Astronomical Twilight 4:31 AM MDT 9:19 PM MDT
Moon 6:13 PM MDT (4/13) 5:18 AM MDT (4/13)
Length of Visible Light 14h 20m
Length of Day
13h 20m
Waxing Gibbous, 97% of the Moon is Illuminated
Apr 13
Waxing Gibbous
Apr 15
Full
Apr 22
Last Quarter
Apr 29
New
May 6
First Quarter

Hourly Weather History & Observations

Time (MDT) Temp. Windchill Dew Point Humidity Pressure Visibility Wind Dir Wind Speed Gust Speed Precip Events Conditions
12:02 AM 30.9 °F 20.2 °F 27.0 °F 85% 29.88 in 1.8 mi NNE 15.0 mph 25.3 mph 0.00 in Snow Light Snow
12:39 AM 30.0 °F 20.0 °F 27.0 °F 88% 29.89 in 1.0 mi NNE 12.7 mph - 0.02 in Snow Light Snow
12:53 AM 30.0 °F 20.5 °F 27.0 °F 88% 29.87 in 2.0 mi NNE 11.5 mph - 0.02 in Snow Light Snow
1:03 AM 30.0 °F 21.1 °F 27.0 °F 88% 29.89 in 2.5 mi NNE 10.4 mph - 0.00 in Snow Light Snow
1:07 AM 30.0 °F 21.1 °F 27.0 °F 88% 29.88 in 3.0 mi NNE 10.4 mph - 0.00 in Snow Light Snow
1:40 AM 28.9 °F 20.4 °F 26.1 °F 89% 29.89 in 4.0 mi NNE 9.2 mph - 0.00 in Snow Light Snow
1:53 AM 28.9 °F 21.1 °F 26.1 °F 89% 29.88 in 4.0 mi NNE 8.1 mph - 0.00 in Snow Light Snow
2:14 AM 28.9 °F 21.1 °F 25.0 °F 85% 29.88 in 4.0 mi NNE 8.1 mph - 0.00 in Snow Light Snow
2:33 AM 28.9 °F 19.8 °F 24.1 °F 82% 29.88 in 5.0 mi North 10.4 mph - 0.01 in Snow Light Snow
2:53 AM 28.0 °F 18.1 °F 23.0 °F 81% 29.88 in 9.0 mi NNE 11.5 mph - 0.01 in   Overcast
3:53 AM 27.0 °F 18.7 °F 21.9 °F 81% 29.89 in 10.0 mi NNE 8.1 mph - N/A   Overcast
4:53 AM 25.0 °F 18.1 °F 19.9 °F 81% 29.94 in 10.0 mi North 5.8 mph - N/A   Overcast
5:53 AM 24.1 °F 15.2 °F 18.0 °F 77% 29.97 in 10.0 mi North 8.1 mph - N/A   Overcast
6:53 AM 23.0 °F 13.9 °F 17.1 °F 78% 30.01 in 9.0 mi North 8.1 mph - 0.00 in   Overcast
7:53 AM 21.9 °F 12.5 °F 15.1 °F 75% 30.04 in 10.0 mi North 8.1 mph - N/A   Overcast
8:53 AM 21.9 °F 10.4 °F 12.9 °F 68% 30.05 in 10.0 mi North 11.5 mph 17.3 mph N/A   Overcast
9:53 AM 24.1 °F 14.4 °F 12.9 °F 62% 30.06 in 10.0 mi NNE 9.2 mph - N/A   Overcast
10:53 AM 25.0 °F 18.1 °F 14.0 °F 63% 30.07 in 10.0 mi Variable 5.8 mph - N/A   Overcast
11:53 AM 27.0 °F - 12.9 °F 56% 30.09 in 10.0 mi North - - N/A   Overcast
12:53 PM 27.0 °F 16.7 °F 12.0 °F 53% 30.10 in 10.0 mi NE 11.5 mph - N/A   Overcast
1:53 PM 27.0 °F 19.5 °F 10.9 °F 51% 30.12 in 10.0 mi North 6.9 mph 17.3 mph N/A   Overcast
2:53 PM 27.0 °F 17.3 °F 10.9 °F 51% 30.12 in 10.0 mi North 10.4 mph 17.3 mph N/A   Overcast
3:53 PM 24.1 °F 13.1 °F 10.0 °F 55% 30.16 in 10.0 mi NNE 11.5 mph 19.6 mph N/A   Overcast
4:53 PM 23.0 °F 13.1 °F 10.0 °F 58% 30.19 in 10.0 mi NNW 9.2 mph 21.9 mph N/A   Overcast
6:53 PM 23.0 °F 12.4 °F 9.0 °F 55% 30.25 in 10.0 mi North 10.4 mph - N/A   Overcast
7:53 PM 23.0 °F 12.4 °F 9.0 °F 55% 30.27 in 10.0 mi North 10.4 mph - N/A   Overcast
8:53 PM 21.9 °F 11.0 °F 10.0 °F 60% 30.30 in 10.0 mi North 10.4 mph - N/A   Overcast
9:53 PM 19.9 °F 8.6 °F 10.9 °F 68% 30.32 in 10.0 mi North 10.4 mph - N/A   Mostly Cloudy
10:20 PM 19.9 °F 13.4 °F 10.9 °F 68% 30.16 in 10.0 mi NNW 4.6 mph - N/A   Mostly Cloudy
10:50 PM 19.4 °F 14.3 °F 10.4 °F 68% 30.17 in 10.0 mi Variable 3.5 mph - N/A   Partly Cloudy
10:53 PM 19.9 °F 12.1 °F 10.9 °F 68% 30.32 in 10.0 mi NNW 5.8 mph - N/A   Partly Cloudy
11:53 PM 18.0 °F 11.1 °F 10.0 °F 71% 30.31 in 10.0 mi WNW 4.6 mph - N/A   Clear